Location: Beneden-Haastrecht
(52.0012°N, 4.7557°E)
Time: 03:24:29
(UTC+00:00)

Cosmos 2082 - Pass Details

Date: 24 October 2020
Orbit: 832 x 857 km, 71.0° (Epoch: 24 November)

Event Time Altitude Azimuth Distance (km) Brightness Sun altitude
Rises 17:36:22 0° 330° (NNW) 3,433 7.2 -11.2°
Reaches altitude 10° 17:39:03 10° 339° (NNW) 2,497 6.4 -11.6°
Maximum altitude 17:44:16 35° 44° (NE) 1,371 4.4 -12.4°
Enters shadow 17:48:01 17° 101° (E) 2,033 5.1 -13.0°
